Location: Anderson
(35.0873°N, 96.9845°W)
Time: 10:28:45
(UTC+00:00)

Envisat - Visible Passes

Search period start: 11 June 2026 00:00
Search period end: 21 June 2026 00:00
Orbit: 761 x 763 km, 98.4° (Epoch: 10 June)

Date Brightness Start Highest point End Pass type
(mag) Time Alt. Az. Time Alt. Az. Time Alt. Az.
11 Jun 4.0 08:27:12 10° NNE 08:31:54 38° E 08:33:27 30° SE visible
11 Jun 4.5 10:06:46 10° NNW 10:10:32 21° WNW 10:13:35 13° WSW visible
12 Jun 5.2 07:50:52 10° ENE 07:53:50 16° E 07:55:11 14° ESE visible
12 Jun 3.3 09:28:06 10° N 09:32:59 50° WNW 09:35:18 28° SW visible
13 Jun 3.1 08:50:12 10° NNE 08:55:15 67° ESE 08:57:02 39° S visible
13 Jun 5.0 10:31:25 10° NW 10:33:32 13° WNW 10:35:40 10° W visible
14 Jun 4.5 08:13:02 10° NE 08:17:18 27° E 08:18:45 23° SE visible
14 Jun 4.1 09:51:47 10° N 09:56:08 29° WNW 09:58:53 18° WSW visible
15 Jun 5.5 07:38:09 10° E 07:39:09 11° E 07:40:09 10° ESE visible
15 Jun 3.0 09:13:27 10° N 09:18:30 71° WNW 09:20:36 35° SSW visible
16 Jun 3.7 08:35:48 10° NNE 08:40:41 47° E 08:42:19 35° SSE visible
16 Jun 4.7 10:15:54 10° NNW 10:19:11 18° WNW 10:22:27 10° WSW visible
17 Jun 4.9 07:59:04 10° NE 08:02:40 19° E 08:04:02 17° ESE visible
17 Jun 3.6 09:36:58 10° N 09:41:41 40° WNW 09:44:10 24° SW visible
18 Jun 2.9 08:58:54 10° NNE 09:03:59 83° ESE 09:05:53 40° S visible
18 Jun 5.2 10:41:47 10° WNW 10:42:09 10° WNW 10:42:31 10° WNW visible
19 Jun 4.2 08:21:32 10° NNE 08:26:05 33° E 08:27:35 28° SE visible
19 Jun 4.3 10:00:47 10° NNW 10:04:48 24° WNW 10:07:43 15° WSW visible
20 Jun 5.3 07:45:32 10° ENE 07:48:00 13° E 07:49:18 12° ESE visible
20 Jun 3.2 09:22:15 10° N 09:27:13 57° WNW 09:29:26 31° SW visible
